Location: Lichtensteig
(47.3376°N, 9.0841°E)
Time: 00:06:46
(UTC+00:00)

Cosmos 1697 Rocket - Pass Details

Date: 03 March 2021
Orbit: 834 x 842 km, 71.0° (Epoch: 20 April)

Event Time Altitude Azimuth Distance (km) Brightness Sun altitude
Rises 17:29:55 0° 237° (WSW) 3,388 7.1 -3.9°
Reaches altitude 10° 17:32:37 10° 248° (WSW) 2,456 6.7 -4.3°
Maximum altitude 17:37:36 32° 310° (NW) 1,424 4.5 -5.2°
Drops below altitude 10° 17:42:37 10° 12° (NNE) 2,464 5.0 -6.0°
Sets 17:45:21 0° 23° (NNE) 3,401 5.6 -6.5°
